Location: Bouillancy
(49.1149°N, 2.9308°E)
Time: 08:41:42
(UTC+00:00)

Okean-O - Pass Details

Date: 30 September 2020
Orbit: 638 x 641 km, 98.2° (Epoch: 29 October)

Event Time Altitude Azimuth Distance (km) Brightness Sun altitude
Rises 17:57:26 0° 159° (SSE) 2,935 5.8 -5.6°
Reaches altitude 10° 17:59:37 10° 158° (SSE) 2,030 5.0 -5.9°
Maximum altitude 18:04:02 75° 74° (ENE) 668 2.6 -6.7°
Drops below altitude 10° 18:08:29 10° 349° (N) 2,046 5.4 -7.4°
Sets 18:10:42 0° 348° (NNW) 2,960 6.3 -7.8°
